Time,TemperatureF,DewpointF,PressureIn,WindDirection,WindDirectionDegrees,WindSpeedMPH,WindSpeedGustMPH,Humidity,HourlyPrecipIn,Conditions,Clouds,dailyrainin,SoftwareType,DateUTC
2013-01-11 00:16:00,65.9,63.0,30.24,East,98,0.0,1.0,90,0.00,,,0.00,weatherlink.com 1.10,2013-01-11 05:16:00,
2013-01-11 00:31:00,65.8,63.0,30.23,East,98,0.0,2.0,91,0.00,,,0.00,weatherlink.com 1.10,2013-01-11 05:31:00,
2013-01-11 00:46:00,65.6,63.0,30.23,East,98,1.0,2.0,92,0.00,,,0.00,weatherlink.com 1.10,2013-01-11 05:46:00,
2013-01-11 01:01:00,65.4,63.0,30.23,East,98,0.0,1.0,92,0.00,,,0.00,weatherlink.com 1.10,2013-01-11 06:01:00,
2013-01-11 01:16:00,65.1,63.0,30.22,East,98,0.0,1.0,92,0.00,,,0.00,weatherlink.com 1.10,2013-01-11 06:16:00,
2013-01-11 01:31:00,64.9,63.0,30.22,East,98,1.0,1.0,92,0.00,,,0.00,weatherlink.com 1.10,2013-01-11 06:31:00,
2013-01-11 01:46:00,64.7,63.0,30.21,East,98,0.0,0.0,93,0.00,,,0.00,weatherlink.com 1.10,2013-01-11 06:46:00,
2013-01-11 02:01:00,64.5,63.0,30.21,East,98,0.0,1.0,93,0.00,,,0.00,weatherlink.com 1.10,2013-01-11 07:01:00,
2013-01-11 02:17:00,64.6,63.0,30.20,East,98,0.0,2.0,94,0.00,,,0.00,weatherlink.com 1.10,2013-01-11 07:17:00,
2013-01-11 02:32:00,64.5,63.0,30.20,East,98,0.0,1.0,93,0.00,,,0.00,weatherlink.com 1.10,2013-01-11 07:32:00,
2013-01-11 02:47:00,64.6,63.0,30.20,East,98,0.0,1.0,94,0.00,,,0.00,weatherlink.com 1.10,2013-01-11 07:47:00,
2013-01-11 03:02:00,64.4,63.0,30.19,East,98,0.0,1.0,94,0.00,,,0.00,weatherlink.com 1.10,2013-01-11 08:02:00,
2013-01-11 03:17:00,64.5,63.0,30.19,East,98,0.0,1.0,94,0.00,,,0.00,weatherlink.com 1.10,2013-01-11 08:17:00,
2013-01-11 03:32:00,64.8,63.0,30.18,East,98,1.0,2.0,95,0.00,,,0.00,weatherlink.com 1.10,2013-01-11 08:32:00,
2013-01-11 03:47:00,64.9,63.0,30.18,East,98,0.0,2.0,94,0.00,,,0.00,weatherlink.com 1.10,2013-01-11 08:47:00,
2013-01-11 04:02:00,64.9,63.0,30.17,East,98,0.0,1.0,94,0.00,,,0.00,weatherlink.com 1.10,2013-01-11 09:02:00,
2013-01-11 04:17:00,64.8,63.0,30.18,East,98,0.0,0.0,94,0.00,,,0.00,weatherlink.com 1.10,2013-01-11 09:17:00,
2013-01-11 04:32:00,64.7,63.0,30.17,East,98,0.0,0.0,94,0.00,,,0.00,weatherlink.com 1.10,2013-01-11 09:32:00,
2013-01-11 04:47:00,64.5,63.0,30.18,East,98,0.0,0.0,94,0.00,,,0.00,weatherlink.com 1.10,2013-01-11 09:47:00,
2013-01-11 05:02:00,64.2,63.0,30.17,East,98,0.0,0.0,95,0.00,,,0.00,weatherlink.com 1.10,2013-01-11 10:02:00,
2013-01-11 05:17:00,63.9,63.0,30.17,East,98,0.0,1.0,95,0.00,,,0.00,weatherlink.com 1.10,2013-01-11 10:17:00,
2013-01-11 05:32:00,63.6,62.0,30.17,East,98,0.0,0.0,95,0.00,,,0.00,weatherlink.com 1.10,2013-01-11 10:32:00,
2013-01-11 05:47:00,63.5,62.0,30.17,East,98,0.0,1.0,95,0.00,,,0.00,weatherlink.com 1.10,2013-01-11 10:47:00,
2013-01-11 06:02:00,63.4,62.0,30.17,East,98,0.0,2.0,95,0.00,,,0.00,weatherlink.com 1.10,2013-01-11 11:02:00,
2013-01-11 06:17:00,63.0,62.0,30.17,East,98,0.0,1.0,95,0.00,,,0.00,weatherlink.com 1.10,2013-01-11 11:17:00,
2013-01-11 06:32:00,62.9,62.0,30.17,East,98,0.0,1.0,95,0.00,,,0.00,weatherlink.com 1.10,2013-01-11 11:32:00,
2013-01-11 06:47:00,63.0,62.0,30.17,East,98,0.0,2.0,96,0.00,,,0.00,weatherlink.com 1.10,2013-01-11 11:47:00,
2013-01-11 07:02:00,63.2,62.0,30.17,East,97,0.0,2.0,96,0.00,,,0.00,weatherlink.com 1.10,2013-01-11 12:02:00,
2013-01-11 07:17:00,63.1,62.0,30.17,East,97,0.0,0.0,96,0.00,,,0.00,weatherlink.com 1.10,2013-01-11 12:17:00,
2013-01-11 07:32:00,63.1,62.0,30.18,East,97,0.0,0.0,96,0.00,,,0.00,weatherlink.com 1.10,2013-01-11 12:32:00,
2013-01-11 07:47:00,63.3,62.0,30.18,East,97,0.0,2.0,96,0.00,,,0.00,weatherlink.com 1.10,2013-01-11 12:47:00,
2013-01-11 08:02:00,63.7,63.0,30.18,East,95,1.0,2.0,96,0.00,,,0.00,weatherlink.com 1.10,2013-01-11 13:02:00,
2013-01-11 08:17:00,64.4,64.0,30.19,East,89,2.0,3.0,97,0.00,,,0.00,weatherlink.com 1.10,2013-01-11 13:17:00,
2013-01-11 08:32:00,65.4,65.0,30.20,East,82,1.0,4.0,97,0.00,,,0.00,weatherlink.com 1.10,2013-01-11 13:32:00,
2013-01-11 08:47:00,67.0,66.0,30.20,ENE,76,0.0,3.0,96,0.00,,,0.00,weatherlink.com 1.10,2013-01-11 13:47:00,
2013-01-11 09:02:00,68.6,67.0,30.21,East,91,0.0,4.0,94,0.00,,,0.00,weatherlink.com 1.10,2013-01-11 14:02:00,
2013-01-11 09:17:00,70.2,67.0,30.21,ENE,69,1.0,5.0,90,0.00,,,0.00,weatherlink.com 1.10,2013-01-11 14:17:00,
2013-01-11 09:32:00,71.4,68.0,30.21,ENE,76,1.0,5.0,88,0.00,,,0.00,weatherlink.com 1.10,2013-01-11 14:32:00,
2013-01-11 09:47:00,72.3,68.0,30.22,ENE,70,5.0,7.0,86,0.00,,,0.00,weatherlink.com 1.10,2013-01-11 14:47:00,
2013-01-11 10:02:00,73.5,69.0,30.21,East,84,3.0,7.0,85,0.00,,,0.00,weatherlink.com 1.10,2013-01-11 15:02:00,
2013-01-11 10:17:00,75.1,69.0,30.21,SE,130,1.0,6.0,82,0.00,,,0.00,weatherlink.com 1.10,2013-01-11 15:17:00,
2013-01-11 10:32:00,76.1,69.0,30.22,East,82,0.0,8.0,79,0.00,,,0.00,weatherlink.com 1.10,2013-01-11 15:32:00,
2013-01-11 10:47:00,77.9,69.0,30.22,East,94,1.0,4.0,75,0.00,,,0.00,weatherlink.com 1.10,2013-01-11 15:47:00,
2013-01-11 11:03:00,78.4,70.0,30.20,ESE,103,0.0,5.0,74,0.00,,,0.00,weatherlink.com 1.10,2013-01-11 16:03:00,
2013-01-11 11:18:00,79.3,68.0,30.20,SE,125,2.0,6.0,68,0.00,,,0.00,weatherlink.com 1.10,2013-01-11 16:18:00,
2013-01-11 11:33:00,80.0,69.0,30.19,SE,134,2.0,6.0,68,0.00,,,0.00,weatherlink.com 1.10,2013-01-11 16:33:00,
2013-01-11 11:48:00,81.1,68.0,30.18,SW,218,2.0,4.0,65,0.00,,,0.00,weatherlink.com 1.10,2013-01-11 16:48:00,
2013-01-11 12:03:00,82.3,67.0,30.18,ESE,117,2.0,9.0,61,0.00,,,0.00,weatherlink.com 1.10,2013-01-11 17:03:00,
2013-01-11 12:18:00,82.4,67.0,30.18,ESE,105,3.0,10.0,59,0.00,,,0.00,weatherlink.com 1.10,2013-01-11 17:18:00,
2013-01-11 12:33:00,83.1,67.0,30.17,ESE,120,1.0,6.0,58,0.00,,,0.00,weatherlink.com 1.10,2013-01-11 17:33:00,
2013-01-11 12:48:00,83.8,67.0,30.16,ESE,110,2.0,7.0,58,0.00,,,0.00,weatherlink.com 1.10,2013-01-11 17:48:00,
2013-01-11 13:03:00,85.0,67.0,30.15,ESE,113,0.0,7.0,55,0.00,,,0.00,weatherlink.com 1.10,2013-01-11 18:03:00,
2013-01-11 13:18:00,84.7,65.0,30.14,SE,139,2.0,7.0,52,0.00,,,0.00,weatherlink.com 1.10,2013-01-11 18:18:00,
2013-01-11 13:33:00,85.6,66.0,30.14,South,175,3.0,8.0,52,0.00,,,0.00,weatherlink.com 1.10,2013-01-11 18:33:00,
2013-01-11 13:48:00,83.9,64.0,30.13,ESE,103,1.0,5.0,52,0.00,,,0.00,weatherlink.com 1.10,2013-01-11 18:48:00,
2013-01-11 14:03:00,85.4,65.0,30.13,SE,133,1.0,3.0,51,0.00,,,0.00,weatherlink.com 1.10,2013-01-11 19:03:00,
2013-01-11 14:18:00,85.8,66.0,30.12,SSE,165,3.0,7.0,51,0.00,,,0.00,weatherlink.com 1.10,2013-01-11 19:18:00,
2013-01-11 14:33:00,86.3,67.0,30.12,SE,130,0.0,4.0,53,0.00,,,0.00,weatherlink.com 1.10,2013-01-11 19:33:00,
2013-01-11 14:48:00,86.6,64.0,30.11,East,91,3.0,7.0,47,0.00,,,0.00,weatherlink.com 1.10,2013-01-11 19:48:00,
2013-01-11 15:03:00,84.9,64.0,30.11,SE,133,1.0,6.0,50,0.00,,,0.00,weatherlink.com 1.10,2013-01-11 20:03:00,
2013-01-11 15:18:00,85.8,65.0,30.10,SE,132,0.0,6.0,50,0.00,,,0.00,weatherlink.com 1.10,2013-01-11 20:18:00,
2013-01-11 15:33:00,85.8,64.0,30.10,ESE,119,3.0,4.0,49,0.00,,,0.00,weatherlink.com 1.10,2013-01-11 20:33:00,
2013-01-11 15:48:00,84.6,64.0,30.10,ESE,121,0.0,7.0,50,0.00,,,0.00,weatherlink.com 1.10,2013-01-11 20:48:00,
2013-01-11 16:03:00,85.0,65.0,30.10,SE,138,2.0,5.0,51,0.00,,,0.00,weatherlink.com 1.10,2013-01-11 21:03:00,
2013-01-11 16:18:00,84.4,64.0,30.10,South,169,1.0,9.0,50,0.00,,,0.00,weatherlink.com 1.10,2013-01-11 21:18:00,
2013-01-11 16:33:00,83.7,64.0,30.10,SE,146,2.0,7.0,51,0.00,,,0.00,weatherlink.com 1.10,2013-01-11 21:33:00,
2013-01-11 16:48:00,82.3,64.0,30.10,ESE,116,2.0,6.0,54,0.00,,,0.00,weatherlink.com 1.10,2013-01-11 21:48:00,
2013-01-11 17:03:00,81.0,65.0,30.11,ESE,111,0.0,6.0,58,0.00,,,0.00,weatherlink.com 1.10,2013-01-11 22:03:00,
2013-01-11 17:18:00,79.9,65.0,30.11,SE,142,1.0,3.0,60,0.00,,,0.00,weatherlink.com 1.10,2013-01-11 22:18:00,
2013-01-11 17:33:00,79.1,65.0,30.11,ESE,114,1.0,7.0,62,0.00,,,0.00,weatherlink.com 1.10,2013-01-11 22:33:00,
2013-01-11 17:48:00,78.4,65.0,30.11,SSE,148,0.0,3.0,64,0.00,,,0.00,weatherlink.com 1.10,2013-01-11 22:48:00,
2013-01-11 18:03:00,77.5,66.0,30.11,ESE,106,0.0,3.0,67,0.00,,,0.00,weatherlink.com 1.10,2013-01-11 23:03:00,
2013-01-11 18:18:00,76.8,65.0,30.11,SSE,152,0.0,1.0,68,0.00,,,0.00,weatherlink.com 1.10,2013-01-11 23:18:00,
2013-01-11 18:48:00,75.3,65.0,30.12,ESE,103,0.0,2.0,71,0.00,,,0.00,weatherlink.com 1.10,2013-01-11 23:48:00,
2013-01-11 19:03:00,74.7,65.0,30.12,ESE,104,0.0,2.0,72,0.00,,,0.00,weatherlink.com 1.10,2013-01-12 00:03:00,
2013-01-11 19:18:00,73.9,65.0,30.12,ESE,104,0.0,1.0,73,0.00,,,0.00,weatherlink.com 1.10,2013-01-12 00:18:00,
2013-01-11 19:33:00,73.1,64.0,30.13,ESE,109,0.0,0.0,74,0.00,,,0.00,weatherlink.com 1.10,2013-01-12 00:33:00,
2013-01-11 19:48:00,72.4,64.0,30.13,ESE,109,0.0,1.0,76,0.00,,,0.00,weatherlink.com 1.10,2013-01-12 00:48:00,
2013-01-11 20:18:00,71.2,64.0,30.13,ESE,109,0.0,1.0,79,0.00,,,0.00,weatherlink.com 1.10,2013-01-12 01:18:00,
2013-01-11 20:33:00,70.6,65.0,30.14,ESE,109,0.0,0.0,81,0.00,,,0.00,weatherlink.com 1.10,2013-01-12 01:33:00,
2013-01-11 20:48:00,70.2,65.0,30.14,ESE,109,0.0,1.0,82,0.00,,,0.00,weatherlink.com 1.10,2013-01-12 01:48:00,
2013-01-11 21:03:00,69.8,64.0,30.14,ESE,122,0.0,2.0,83,0.00,,,0.00,weatherlink.com 1.10,2013-01-12 02:03:00,
2013-01-11 21:18:00,69.5,64.0,30.14,ESE,121,0.0,1.0,83,0.00,,,0.00,weatherlink.com 1.10,2013-01-12 02:18:00,
2013-01-11 21:33:00,69.2,64.0,30.14,ESE,119,0.0,1.0,84,0.00,,,0.00,weatherlink.com 1.10,2013-01-12 02:33:00,
2013-01-11 21:48:00,68.9,64.0,30.14,ESE,114,0.0,3.0,85,0.00,,,0.00,weatherlink.com 1.10,2013-01-12 02:48:00,
2013-01-11 22:03:00,68.8,65.0,30.15,ESE,111,0.0,2.0,87,0.00,,,0.00,weatherlink.com 1.10,2013-01-12 03:03:00,
2013-01-11 22:18:00,68.7,65.0,30.15,NNE,24,1.0,1.0,88,0.00,,,0.00,weatherlink.com 1.10,2013-01-12 03:18:00,
2013-01-11 22:33:00,68.7,65.0,30.15,ESE,118,0.0,2.0,88,0.00,,,0.00,weatherlink.com 1.10,2013-01-12 03:33:00,
2013-01-11 22:48:00,68.6,65.0,30.15,ESE,118,0.0,2.0,89,0.00,,,0.00,weatherlink.com 1.10,2013-01-12 03:48:00,
2013-01-11 23:03:00,68.3,65.0,30.15,ESE,117,0.0,1.0,89,0.00,,,0.00,weatherlink.com 1.10,2013-01-12 04:03:00,
2013-01-11 23:18:00,68.1,65.0,30.15,ESE,104,0.0,2.0,90,0.00,,,0.00,weatherlink.com 1.10,2013-01-12 04:18:00,
2013-01-11 23:34:00,67.9,65.0,30.15,ESE,104,1.0,1.0,90,0.00,,,0.00,weatherlink.com 1.10,2013-01-12 04:34:00,
2013-01-11 23:48:00,67.5,65.0,30.15,ESE,104,0.0,1.0,91,0.00,,,0.00,weatherlink.com 1.10,2013-01-12 04:48:00,